SCP
-0 -0 -0 0 -0 0 0 0 0 0 0 0 0 0 0 0 0 0 0 0 0 0 0 0 0 0 0 0 0 0 0 0 0 0 0 0 0 0 0 0 0 0 0
-0 -0 -0 0 0 0 0 0 0 0 0 0 0 0 0 0 0 0 0 0 0 0 0 0 0 0 0 0 0 0 0 0 0 0 0 0 0 0 0 0 0 0 0
-0 -0 -0 -0 -0 0 0 0 0 0 0 0 0 0 0 0 0 0 0 0 0 0 0 0 0 0 0 0 0 0 0 0 0 0 0 0 0 0 0 0 0 0 0
-0 -0 -0 -0 -0 0 0 0 0 0 0 0 0 0 0 0 0 0 0 0 0 0 0 0 0 0 0 0 0 0 0 0 0 0 0 0 0 1 0 0 0 0 0
0 -0 0 0 0 0 0 0 0 0 0 0 0 0 0 0 0 0 0 0 0 0 0 0 0 0 0 0 0 0 0 0 0 0 0 0 0 0 1 1 1 0 0
0 0 0 1 1 1 0 0 0 0 0 0 0 0 0 0 0 0 0 0 0 0 0 0 0 0 0 0 0 0 0 0 1 1 0 0 0 1 1 1 1 1 0
1 0 0 1 1 1 1 0 0 0 0 0 0 0 0 0 0 0 0 0 0 0 0 0 0 0 0 0 0 0 0 0 0 1 0 0 0 0 0 0 0 1 0
2 1 0 0 1 1 -0 1 1 1 1 1 0 0 0 0 0 0 0 0 0 -0 0 0 0 -0 0 0 0 0 0 1 0 0 0 0 0 0 0 0 0 0 0
2 2 1 1 1 0 0 1 1 2 1 1 0 0 0 0 0 0 0 0 0 0 0 0 0 0 0 0 0 0 0 0 0 0 0 0 0 0 0 0 0 0 0
2 2 2 2 1 1 1 1 1 2 3 1 1 0 0 0 0 0 0 0 0 0 0 0 0 0 0 0 0 0 -0 0 0 0 0 0 0 0 0 0 0 0 0
3 3 2 3 2 1 2 3 2 2 2 2 1 1 1 0 0 0 0 0 1 1 1 1 0 0 0 0 0 1 0 0 0 0 0 0 0 0 0 0 0 0 0
2 3 3 3 3 3 1 1 1 2 3 3 2 1 1 1 1 0 0 0 1 1 1 0 0 0 0 0 0 0 0 0 0 0 0 0 0 0 0 0 0 0 0
1 2 3 3 3 2 1 1 2 2 1 0 0 1 1 2 1 0 0 0 0 1 1 0 0 0 0 0 0 0 0 0 0 0 0 0 0 0 0 0 0 0 0
1 3 3 2 3 2 2 2 1 1 1 0 0 -0 0 1 1 0 0 0 0 0 0 0 0 0 0 0 0 0 0 0 0 0 0 0 0 0 0 0 0 0 0
1 3 4 4 1 2 2 4 3 2 2 2 1 1 1 1 1 0 1 1 1 0 0 0 0 0 0 0 0 0 0 0 0 0 0 0 0 0 0 0 0 0 0
1 1 3 2 0 0 0 0 0 0 0 0 0 1 1 0 0 0 0 0 0 0 0 0 0 0 0 0 0 0 0 0 0 0 0 0 0 0 0 0 0 0 0
1 1 1 1 0 1 1 0 0 0 0 0 0 0 1 0 0 0 0 0 0 0 0 0 0 0 0 0 0 0 0 0 0 0 0 0 0 0 0 0 0 0 0
1 0 1 0 1 1 1 1 1 0 0 0 0 0 0 0 0 0 0 0 0 0 0 0 0 0 0 0 0 0 0 0 0 0 0 0 0 0 0 0 0 0 0
1 1 0 1 0 1 1 1 1 0 0 0 0 0 0 0 0 0 0 0 0 0 0 0 0 0 0 0 0 0 0 0 0 0 0 0 0 0 0 0 0 0 0
0 0 0 1 1 0 1 1 1 0 0 0 0 0 0 0 0 0 0 0 0 0 0 0 0 0 0 0 0 0 0 0 0 0 0 0 0 0 0 0 0 0 0
0 1 0 1 1 1 1 1 1 1 0 0 0 0 0 0 0 0 0 0 0 0 0 0 0 0 0 0 0 0 0 0 0 0 0 0 0 0 0 0 0 0 0
1 1 1 1 1 1 1 1 1 1 0 0 0 0 0 0 0 0 0 0 0 0 0 0 0 0 0 0 0 0 0 0 0 0 0 0 0 0 0 0 0 0 0
1 1 1 1 1 1 1 1 1 1 0 0 1 0 0 0 0 0 0 0 0 0 0 0 0 0 0 0 0 0 0 0 0 0 0 0 0 0 0 0 0 0 0
1 1 1 0 1 1 1 1 0 0 0 1 0 0 0 0 0 0 0 0 0 0 0 0 0 0 0 0 0 0 0 0 0 0 0 0 0 0 0 0 0 0 0
0 0 0 0 0 0 0 0 0 0 0 1 0 0 0 0 0 0 0 0 0 0 0 0 0 0 0 0 0 0 0 0 0 0 0 0 0 0 0 0 0 0 0
0 0 0 0 0 0 0 0 0 0 1 0 0 0 0 0 0 0 0 0 0 0 0 0 0 0 0 0 0 0 0 0 0 0 0 0 0 0 0 0 0 0 0
Wind_Speed_500mb
58 55 52 53 50 48 45 45 46 47 46 49 49 50 48 42 38 39 37 35 29 27 26 27 25 24 22 23 23 25 27 28 32 29 25 24 26 24 23 26 27 29 31
58 57 53 49 49 45 47 44 46 51 52 54 54 54 53 45 43 45 41 33 35 30 28 28 27 26 30 24 25 28 26 27 30 32 30 31 31 28 30 31 31 30 34
54 56 55 53 52 47 45 44 45 51 55 51 56 53 49 46 49 49 47 41 38 32 30 31 29 30 29 27 28 30 29 26 30 33 34 32 33 33 32 33 34 34 36
51 52 56 60 58 53 46 45 44 48 55 56 52 50 49 48 46 45 42 42 39 33 32 33 33 33 34 31 29 32 32 31 31 32 36 37 37 35 36 37 38 34 36
52 56 61 57 57 53 50 48 43 45 50 56 54 49 50 46 43 45 45 43 46 41 36 39 39 39 38 38 34 32 35 37 35 38 41 41 40 37 34 34 40 40 43
48 52 53 59 61 63 59 53 49 48 50 55 55 52 50 49 47 52 49 47 44 42 45 49 48 50 46 44 44 44 44 49 48 46 42 44 45 46 38 42 52 49 44
41 46 52 57 65 65 65 61 57 53 53 56 52 51 52 51 52 54 53 49 42 44 49 46 40 37 43 40 40 40 43 47 53 53 54 51 50 45 44 45 40 44 48
37 43 46 53 58 61 64 62 60 56 53 54 56 53 50 51 57 58 53 54 56 52 56 57 52 49 42 41 41 43 39 43 47 46 48 51 51 48 48 51 54 58 57
35 40 44 48 52 57 62 73 65 57 59 53 52 57 61 61 59 57 54 55 55 58 52 57 56 48 45 44 40 46 45 47 46 46 43 42 41 44 47 49 35 34 38
31 37 41 47 52 62 67 58 56 58 56 50 44 48 55 59 58 51 48 53 47 48 46 55 55 49 48 45 44 43 45 45 37 33 32 36 38 37 34 36 34 23 24
26 35 39 46 52 57 64 52 54 61 43 48 42 48 51 57 57 55 50 49 49 49 47 56 49 44 45 45 40 35 29 28 26 26 25 22 17 15 20 18 14 10 9
29 30 37 40 44 45 74 49 46 55 54 52 42 41 45 56 56 49 49 51 51 49 43 38 44 38 41 38 32 31 27 28 19 16 15 11 9 10 7 5 7 10 12
17 36 36 41 50 50 58 51 46 63 59 55 49 56 53 56 50 50 49 51 51 48 44 46 38 38 39 38 38 36 30 23 20 20 17 15 14 9 4 4 6 7 13
22 21 45 50 50 53 54 51 55 54 66 58 59 119 62 52 53 53 56 52 48 52 54 46 44 44 43 40 34 30 25 22 22 21 17 15 12 8 5 7 3 4 3
26 28 34 28 36 50 57 50 60 62 65 67 57 51 49 48 48 49 48 51 52 55 48 45 45 41 41 38 32 29 26 32 26 23 20 16 15 14 13 11 10 9 10
28 30 33 24 34 58 49 40 46 44 43 44 42 40 40 42 42 42 44 45 44 44 41 44 43 34 30 30 32 32 31 30 25 22 21 21 20 18 17 15 14 12 16
33 30 33 32 36 28 46 46 43 49 53 50 55 53 52 46 43 43 46 44 42 41 35 41 40 33 32 33 34 33 32 27 25 21 23 24 23 22 26 19 18 15 16
40 38 31 36 34 26 39 45 40 34 33 49 53 49 55 50 48 50 48 47 46 44 33 31 33 34 37 38 36 34 30 29 27 24 25 27 28 27 26 23 22 20 20
40 39 37 36 37 33 45 61 57 53 50 56 67 58 49 47 47 47 47 47 45 42 34 35 35 36 35 34 35 34 36 33 29 25 25 25 25 30 27 28 25 26 26
44 47 45 38 41 40 42 50 60 65 39 43 46 55 56 53 56 59 55 39 37 36 35 36 35 35 35 41 41 36 35 36 29 29 28 27 26 26 26 25 21 21 20
44 41 43 34 38 39 41 40 47 57 48 51 39 41 50 55 56 59 56 43 39 36 39 40 42 46 46 45 39 34 34 34 31 27 28 27 24 21 19 19 19 18 20
42 43 41 38 38 37 36 33 37 42 44 44 47 48 48 55 44 43 46 46 41 35 33 37 36 35 35 39 37 37 37 36 30 28 26 23 19 16 15 16 16 18 21
41 43 42 40 39 36 37 40 41 42 44 43 43 49 54 60 47 41 40 44 42 38 39 37 33 37 41 42 38 38 35 31 27 25 24 24 22 20 19 19 19 20 22
38 39 40 39 31 32 32 36 46 56 50 45 43 43 46 57 46 40 39 38 38 37 36 37 38 33 32 33 36 34 31 29 27 25 25 24 24 24 24 25 25 25 27
34 33 35 37 36 34 37 36 36 46 53 48 51 47 38 49 45 41 38 36 35 34 32 33 32 30 30 31 29 30 36 37 35 33 23 27 28 30 31 30 29 30 31
25 27 30 36 42 40 40 41 43 48 52 61 55 49 48 48 43 40 39 36 33 32 31 30 29 30 28 31 42 38 35 34 33 36 33 32 32 30 29 31 32 36 39
Wind_Direction_500mb
211 213 214 219 222 220 217 217 216 213 218 211 216 218 218 221 226 233 234 229 235 240 241 241 252 250 252 256 260 264 260 263 263 268 271 282 284 293 273 275 281 273 269
210 212 215 217 217 216 219 219 218 217 216 219 220 221 224 229 231 235 235 231 239 236 237 239 245 251 260 256 258 258 257 255 254 263 268 275 278 277 281 277 276 272 268
208 211 210 212 216 215 222 218 219 219 219 217 220 220 225 229 234 235 234 234 232 234 233 243 248 253 248 252 254 251 261 263 257 258 267 270 273 276 280 282 283 280 277
211 208 211 213 217 219 217 225 221 222 220 217 217 220 225 230 230 233 235 234 232 238 240 243 243 241 240 243 254 258 257 257 260 264 269 275 278 281 278 281 282 283 281
211 212 215 218 218 216 218 228 226 225 222 222 220 221 223 225 231 235 233 234 238 241 243 249 250 248 250 256 255 260 254 254 259 265 270 275 278 280 280 279 276 279 281
218 218 218 218 215 220 221 223 228 229 226 224 224 225 227 229 233 234 239 242 242 246 251 259 256 256 253 255 259 262 263 260 262 262 267 270 275 280 285 280 283 284 283
223 222 218 218 219 221 223 221 222 225 226 227 226 228 232 234 233 237 240 239 249 252 258 258 261 263 261 257 261 263 264 263 266 270 273 277 279 281 282 288 285 281 283
226 225 220 220 220 218 217 219 222 221 224 228 231 230 232 236 237 242 245 247 247 254 258 259 265 261 262 266 271 271 270 269 265 269 274 275 277 280 288 293 296 296 296
227 225 222 222 220 217 221 221 223 226 233 230 233 235 239 244 246 246 245 246 249 251 251 256 260 265 272 277 278 273 268 266 270 273 276 279 280 285 287 293 296 289 297
242 228 225 226 224 218 217 228 223 218 221 223 231 239 242 245 246 246 242 241 241 244 250 260 261 266 273 274 275 281 271 261 265 267 268 274 281 285 290 300 300 299 300
243 237 227 227 232 225 223 224 224 219 216 229 232 237 239 244 242 240 235 239 239 249 249 252 261 262 265 271 274 262 247 247 258 263 266 270 274 291 307 320 337 358 18
244 234 233 228 227 229 220 227 228 224 228 234 232 237 234 238 241 239 240 240 243 247 244 250 258 260 272 267 254 246 245 254 245 220 210 196 210 278 300 2 48 59 40
282 228 230 227 224 220 224 223 229 225 224 232 243 229 233 232 234 239 238 241 234 237 242 248 260 260 259 260 256 256 252 227 207 200 197 196 216 218 193 60 69 78 54
293 268 224 224 227 223 210 216 218 218 216 234 245 231 239 237 237 239 239 233 228 227 235 252 252 250 250 247 247 242 214 198 196 202 201 194 203 225 201 198 211 204 247
279 278 271 244 223 226 221 202 213 217 221 225 222 218 234 237 240 236 236 224 224 234 238 245 244 236 234 235 227 209 197 198 189 196 199 203 204 212 221 227 227 249 265
274 278 279 285 242 227 224 220 220 216 218 223 218 225 229 232 237 232 222 226 235 236 239 237 230 218 216 208 202 198 195 195 200 206 211 215 216 223 235 247 237 249 262
267 267 270 279 265 230 215 205 219 215 206 228 219 240 237 230 229 219 223 225 224 221 216 224 221 206 208 206 203 202 202 208 213 220 222 222 224 232 236 236 254 254 262
263 257 248 265 263 240 216 181 185 201 226 247 240 231 230 219 218 219 219 217 214 211 203 211 209 208 207 206 203 204 208 220 223 229 226 227 230 233 240 247 247 250 256
255 255 251 244 243 230 221 206 210 217 216 237 249 226 221 211 209 210 211 216 220 217 207 213 213 209 204 202 204 210 218 227 226 232 227 232 240 244 236 237 239 243 245
247 255 254 249 238 227 225 223 222 206 229 236 238 218 217 204 200 201 203 198 204 206 211 212 214 208 208 211 217 221 223 228 227 225 229 237 243 238 244 243 227 248 266
239 242 258 243 237 224 226 218 229 228 232 228 232 222 222 213 206 212 209 206 205 208 207 213 213 216 217 219 221 219 223 223 223 228 236 241 238 239 245 240 248 247 256
233 235 238 243 238 231 227 228 225 224 223 223 223 221 226 209 209 213 213 215 214 214 217 216 216 226 234 231 222 218 221 223 224 228 226 223 230 236 235 242 241 245 250
226 227 230 237 227 226 226 228 223 222 223 220 218 215 222 206 206 218 218 218 218 218 216 222 223 220 220 225 215 211 222 223 225 223 217 221 225 232 237 244 248 252 256
222 218 223 226 230 221 220 227 229 220 217 220 209 205 221 198 202 212 217 217 213 214 214 217 221 216 212 207 212 212 216 216 217 227 223 229 232 236 242 241 245 250 256
212 209 214 219 222 231 228 236 231 223 215 217 205 207 202 196 200 204 202 203 199 200 203 204 203 203 210 211 208 210 215 215 216 231 224 234 236 238 238 242 250 255 258
204 212 218 223 227 225 235 240 234 222 216 208 208 200 192 188 187 189 190 191 189 189 191 201 206 199 209 218 213 217 222 223 225 233 236 241 244 246 251 253 256 259 263
Wind_Speed_850mb
58 55 52 53 50 48 45 45 46 47 46 49 49 50 48 42 38 39 37 35 29 27 26 27 25 24 22 23 23 25 27 28 32 29 25 24 26 24 23 26 27 29 31
58 57 53 49 49 45 47 44 46 51 52 54 54 54 53 45 43 45 41 33 35 30 28 28 27 26 30 24 25 28 26 27 30 32 30 31 31 28 30 31 31 30 34
54 56 55 53 52 47 45 44 45 51 55 51 56 53 49 46 49 49 47 41 38 32 30 31 29 30 29 27 28 30 29 26 30 33 34 32 33 33 32 33 34 34 36
51 52 56 60 58 53 46 45 44 48 55 56 52 50 49 48 46 45 42 42 39 33 32 33 33 33 34 31 29 32 32 31 31 32 36 37 37 35 36 37 38 34 36
52 56 61 57 57 53 50 48 43 45 50 56 54 49 50 46 43 45 45 43 46 41 36 39 39 39 38 38 34 32 35 37 35 38 41 41 40 37 34 34 40 40 43
48 52 53 59 61 63 59 53 49 48 50 55 55 52 50 49 47 52 49 47 44 42 45 49 48 50 46 44 44 44 44 49 48 46 42 44 45 46 38 42 52 49 44
41 46 52 57 65 65 65 61 57 53 53 56 52 51 52 51 52 54 53 49 42 44 49 46 40 37 43 40 40 40 43 47 53 53 54 51 50 45 44 45 40 44 48
37 43 46 53 58 61 64 62 60 56 53 54 56 53 50 51 57 58 53 54 56 52 56 57 52 49 42 41 41 43 39 43 47 46 48 51 51 48 48 51 54 58 57
35 40 44 48 52 57 62 73 65 57 59 53 52 57 61 61 59 57 54 55 55 58 52 57 56 48 45 44 40 46 45 47 46 46 43 42 41 44 47 49 35 34 38
31 37 41 47 52 62 67 58 56 58 56 50 44 48 55 59 58 51 48 53 47 48 46 55 55 49 48 45 44 43 45 45 37 33 32 36 38 37 34 36 34 23 24
26 35 39 46 52 57 64 52 54 61 43 48 42 48 51 57 57 55 50 49 49 49 47 56 49 44 45 45 40 35 29 28 26 26 25 22 17 15 20 18 14 10 9
29 30 37 40 44 45 74 49 46 55 54 52 42 41 45 56 56 49 49 51 51 49 43 38 44 38 41 38 32 31 27 28 19 16 15 11 9 10 7 5 7 10 12
17 36 36 41 50 50 58 51 46 63 59 55 49 56 53 56 50 50 49 51 51 48 44 46 38 38 39 38 38 36 30 23 20 20 17 15 14 9 4 4 6 7 13
22 21 45 50 50 53 54 51 55 54 66 58 59 119 62 52 53 53 56 52 48 52 54 46 44 44 43 40 34 30 25 22 22 21 17 15 12 8 5 7 3 4 3
26 28 34 28 36 50 57 50 60 62 65 67 57 51 49 48 48 49 48 51 52 55 48 45 45 41 41 38 32 29 26 32 26 23 20 16 15 14 13 11 10 9 10
28 30 33 24 34 58 49 40 46 44 43 44 42 40 40 42 42 42 44 45 44 44 41 44 43 34 30 30 32 32 31 30 25 22 21 21 20 18 17 15 14 12 16
33 30 33 32 36 28 46 46 43 49 53 50 55 53 52 46 43 43 46 44 42 41 35 41 40 33 32 33 34 33 32 27 25 21 23 24 23 22 26 19 18 15 16
40 38 31 36 34 26 39 45 40 34 33 49 53 49 55 50 48 50 48 47 46 44 33 31 33 34 37 38 36 34 30 29 27 24 25 27 28 27 26 23 22 20 20
40 39 37 36 37 33 45 61 57 53 50 56 67 58 49 47 47 47 47 47 45 42 34 35 35 36 35 34 35 34 36 33 29 25 25 25 25 30 27 28 25 26 26
44 47 45 38 41 40 42 50 60 65 39 43 46 55 56 53 56 59 55 39 37 36 35 36 35 35 35 41 41 36 35 36 29 29 28 27 26 26 26 25 21 21 20
44 41 43 34 38 39 41 40 47 57 48 51 39 41 50 55 56 59 56 43 39 36 39 40 42 46 46 45 39 34 34 34 31 27 28 27 24 21 19 19 19 18 20
42 43 41 38 38 37 36 33 37 42 44 44 47 48 48 55 44 43 46 46 41 35 33 37 36 35 35 39 37 37 37 36 30 28 26 23 19 16 15 16 16 18 21
41 43 42 40 39 36 37 40 41 42 44 43 43 49 54 60 47 41 40 44 42 38 39 37 33 37 41 42 38 38 35 31 27 25 24 24 22 20 19 19 19 20 22
38 39 40 39 31 32 32 36 46 56 50 45 43 43 46 57 46 40 39 38 38 37 36 37 38 33 32 33 36 34 31 29 27 25 25 24 24 24 24 25 25 25 27
34 33 35 37 36 34 37 36 36 46 53 48 51 47 38 49 45 41 38 36 35 34 32 33 32 30 30 31 29 30 36 37 35 33 23 27 28 30 31 30 29 30 31
25 27 30 36 42 40 40 41 43 48 52 61 55 49 48 48 43 40 39 36 33 32 31 30 29 30 28 31 42 38 35 34 33 36 33 32 32 30 29 31 32 36 39
Wind_Direction_850mb
211 213 214 219 222 220 217 217 216 213 218 211 216 218 218 221 226 233 234 229 235 240 241 241 252 250 252 256 260 264 260 263 263 268 271 282 284 293 273 275 281 273 269
210 212 215 217 217 216 219 219 218 217 216 219 220 221 224 229 231 235 235 231 239 236 237 239 245 251 260 256 258 258 257 255 254 263 268 275 278 277 281 277 276 272 268
208 211 210 212 216 215 222 218 219 219 219 217 220 220 225 229 234 235 234 234 232 234 233 243 248 253 248 252 254 251 261 263 257 258 267 270 273 276 280 282 283 280 277
211 208 211 213 217 219 217 225 221 222 220 217 217 220 225 230 230 233 235 234 232 238 240 243 243 241 240 243 254 258 257 257 260 264 269 275 278 281 278 281 282 283 281
211 212 215 218 218 216 218 228 226 225 222 222 220 221 223 225 231 235 233 234 238 241 243 249 250 248 250 256 255 260 254 254 259 265 270 275 278 280 280 279 276 279 281
218 218 218 218 215 220 221 223 228 229 226 224 224 225 227 229 233 234 239 242 242 246 251 259 256 256 253 255 259 262 263 260 262 262 267 270 275 280 285 280 283 284 283
223 222 218 218 219 221 223 221 222 225 226 227 226 228 232 234 233 237 240 239 249 252 258 258 261 263 261 257 261 263 264 263 266 270 273 277 279 281 282 288 285 281 283
226 225 220 220 220 218 217 219 222 221 224 228 231 230 232 236 237 242 245 247 247 254 258 259 265 261 262 266 271 271 270 269 265 269 274 275 277 280 288 293 296 296 296
227 225 222 222 220 217 221 221 223 226 233 230 233 235 239 244 246 246 245 246 249 251 251 256 260 265 272 277 278 273 268 266 270 273 276 279 280 285 287 293 296 289 297
242 228 225 226 224 218 217 228 223 218 221 223 231 239 242 245 246 246 242 241 241 244 250 260 261 266 273 274 275 281 271 261 265 267 268 274 281 285 290 300 300 299 300
243 237 227 227 232 225 223 224 224 219 216 229 232 237 239 244 242 240 235 239 239 249 249 252 261 262 265 271 274 262 247 247 258 263 266 270 274 291 307 320 337 358 18
244 234 233 228 227 229 220 227 228 224 228 234 232 237 234 238 241 239 240 240 243 247 244 250 258 260 272 267 254 246 245 254 245 220 210 196 210 278 300 2 48 59 40
282 228 230 227 224 220 224 223 229 225 224 232 243 229 233 232 234 239 238 241 234 237 242 248 260 260 259 260 256 256 252 227 207 200 197 196 216 218 193 60 69 78 54
293 268 224 224 227 223 210 216 218 218 216 234 245 231 239 237 237 239 239 233 228 227 235 252 252 250 250 247 247 242 214 198 196 202 201 194 203 225 201 198 211 204 247
279 278 271 244 223 226 221 202 213 217 221 225 222 218 234 237 240 236 236 224 224 234 238 245 244 236 234 235 227 209 197 198 189 196 199 203 204 212 221 227 227 249 265
274 278 279 285 242 227 224 220 220 216 218 223 218 225 229 232 237 232 222 226 235 236 239 237 230 218 216 208 202 198 195 195 200 206 211 215 216 223 235 247 237 249 262
267 267 270 279 265 230 215 205 219 215 206 228 219 240 237 230 229 219 223 225 224 221 216 224 221 206 208 206 203 202 202 208 213 220 222 222 224 232 236 236 254 254 262
263 257 248 265 263 240 216 181 185 201 226 247 240 231 230 219 218 219 219 217 214 211 203 211 209 208 207 206 203 204 208 220 223 229 226 227 230 233 240 247 247 250 256
255 255 251 244 243 230 221 206 210 217 216 237 249 226 221 211 209 210 211 216 220 217 207 213 213 209 204 202 204 210 218 227 226 232 227 232 240 244 236 237 239 243 245
247 255 254 249 238 227 225 223 222 206 229 236 238 218 217 204 200 201 203 198 204 206 211 212 214 208 208 211 217 221 223 228 227 225 229 237 243 238 244 243 227 248 266
239 242 258 243 237 224 226 218 229 228 232 228 232 222 222 213 206 212 209 206 205 208 207 213 213 216 217 219 221 219 223 223 223 228 236 241 238 239 245 240 248 247 256
233 235 238 243 238 231 227 228 225 224 223 223 223 221 226 209 209 213 213 215 214 214 217 216 216 226 234 231 222 218 221 223 224 228 226 223 230 236 235 242 241 245 250
226 227 230 237 227 226 226 228 223 222 223 220 218 215 222 206 206 218 218 218 218 218 216 222 223 220 220 225 215 211 222 223 225 223 217 221 225 232 237 244 248 252 256
222 218 223 226 230 221 220 227 229 220 217 220 209 205 221 198 202 212 217 217 213 214 214 217 221 216 212 207 212 212 216 216 217 227 223 229 232 236 242 241 245 250 256
212 209 214 219 222 231 228 236 231 223 215 217 205 207 202 196 200 204 202 203 199 200 203 204 203 203 210 211 208 210 215 215 216 231 224 234 236 238 238 242 250 255 258
204 212 218 223 227 225 235 240 234 222 216 208 208 200 192 188 187 189 190 191 189 189 191 201 206 199 209 218 213 217 222 223 225 233 236 241 244 246 251 253 256 259 263